Regional Weather Roundup
Issued by NWS State College, PA

Home | Current Version | Previous Version | Text Only | Print | Product List | Glossary Off
Versions: 1 2 3 4 5 6 7 8 9 10 11 12 13 14 15 16 17 18 19 20 21 22 23 24 25 26 27 28 29 30 31 32 33 34 35 36 37 38 39 40 41 42 43 44 45 46 47 48 49 50

000
ASUS41 KCTP 210810
RWRCTP

REGIONAL WEATHER ROUNDUP
NATIONAL WEATHER SERVICE STATE COLLEGE PA
400 AM EDT THU AUG 21 2014

Note: "fair" indicates few or no clouds below 12,000 feet with no
significant weather and/or obstructions to visibility.

* = STATION THAT DOES NOT REPORT PRECIPITATION /E.G. RAIN...SNOW...ETC/
    THUNDER OR FOG.

PAZ002>004-007>009-013>016-020>023-029>032-210900-
WESTERN PENNSYLVANIA

CITY           SKY/WX    TMP DP  RH WIND       PRES   REMARKS
ERIE           PTCLDY    69  64  84 S6        29.95S
MEADVILLE      PTCLDY    66  64  93 SW3       29.99S
FRANKLIN*      CLEAR     64  63  94 SW7       30.01S
NEW CASTLE     NOT AVBL
BEAVER COUNTY  NOT AVBL
BUTLER*          N/A     64  61  88 CALM      30.02S VSB 1/2
PITTSBURGH INT CLEAR     66  64  93 CALM      30.01R
PITTSBURGH     CLEAR     65  63  93 S6        30.01R FOG
INDIANA*       MOCLDY    66  64  94 CALM      30.05S
LATROBE        CLEAR     66  66 100 CALM      30.02S
WASHINGTON CO* MOCLDY    63  63 100 CALM      30.02S VSB 3/4
$$

PAZ004>006-010>012-017>019-024>028-033>037-041-042-045-046-049>053-210900-
CENTRAL PENNSYLVANIA

CITY           SKY/WX    TMP DP  RH WIND       PRES   REMARKS
BRADFORD       PTCLDY    61  59  93 CALM      30.02S FOG
DUBOIS         MOCLDY    65  65 100 CALM      30.01S FOG
CLEARFIELD     FOG       63  63 100 N3        30.02F VSB 1/4
JOHNSTOWN      CLEAR     64  62  93 SW6       30.05S FOG
ALTOONA        CLEAR     65  65 100 CALM      30.02S FOG
STATE COLLEGE  MOCLDY    68  67  98 CALM      30.00F
WILLIAMSPORT   CLOUDY    69  66  90 CALM      29.96F
SELINSGROVE    MOCLDY    66  65  96 CALM      29.99F FOG
FT INDIANTOWN  FOG       64  64 100 CALM      30.01S VSB 1/2
CAPITAL CITY   MOCLDY    67  64  90 S3        30.00F
HARRISBURG     PTCLDY    68  65  90 S5        30.00S
YORK           MOCLDY    61  61 100 CALM      30.01S FOG
$$

PAZ038>040-043-044-047-048-054-055-060>062-067>071-210900-
EASTERN PENNSYLVANIA

CITY           SKY/WX    TMP DP  RH WIND       PRES   REMARKS
SCRANTON       MOCLDY    70  63  78 S5        30.01S
MOUNT POCONO   PTCLDY    64  60  87 S5        30.06S
ALLENTOWN      PTCLDY    70  62  76 CALM      30.02R
QUAKERTOWN*    MOSUNNY   64  63  94 CALM      30.03S
READING        CLEAR     70  62  76 CALM      30.00S
LANCASTER      CLEAR     64  61  90 CALM      30.01S
COATESVILLE    SUNNY     66  66 100 CALM      30.03F
POTTSTOWN      MOCLDY    68  64  87 CALM      30.02F
BLUE BELL      PTCLDY    68  64  88 CALM      30.01F
DOYLESTOWN     MOCLDY    67  64  90 CALM      30.02F
WILLOW GROVE   NOT AVBL
NORTH PHILA    CLOUDY    71  63  75 SE3       30.03F
PHILADELPHIA   MOCLDY    70  64  81 SE6       30.02S
$$



USA.gov is the U.S. government's official web portal to all federal, state and local government web resources and services.